Regional Weather Roundup
Issued by NWS

Home | Current Version | Previous Version | Graphics & Text | Print | Product List | Glossary On
Versions: 1 2 3 4 5 6 7 8 9 10 11 12 13 14 15 16 17 18 19 20 21 22 23 24 25 26 27 28 29 30 31 32 33 34 35 36 37 38 39 40 41 42 43 44 45 46 47 48 49 50
328
ASUS45 KCYS 271110
RWRWY

WYOMING REGIONAL WEATHER ROUNDUP
NATIONAL WEATHER SERVICE CHEYENNE WY
500 AM MDT FRI MAY 27 2016

NOTE:  "FAIR" INDICATES FEW OR NO CLOUDS BELOW 12,000 FEET
WITH NO SIGNIFICANT WEATHER AND/OR OBSTRUCTIONS TO VISIBILITY.

WYZ001-271200-
YELLOWSTONE NATIONAL PARK

CITY           SKY/WX    TMP DP  RH WIND       PRES   REMARKS
LK YELLOWSTONE   N/A     32  31  96 CALM      30.06R
W YELLOWSTONE  NOT AVBL

$$
WYZ002>013-054>058-071-098>099-271200-
NORTHERN WYOMING

CITY           SKY/WX    TMP DP  RH WIND       PRES   REMARKS
JACKSON        MOCLDY    39  39 100 N3        30.01S
CODY           FAIR      41  37  87 CALM      29.93F
GREYBULL       CLOUDY    46  43  89 SE5       29.92S
WORLAND        FAIR      42  40  92 SE7       29.92S
SHERIDAN       FAIR      39  36  89 SW5       29.89F
BUFFALO        FAIR      46  35  65 W3        29.93S
GILLETTE       MOCLDY    42  39  89 CALM      29.90S
HULETT         CLOUDY    46  43  87 MISG      29.91R
NEWCASTLE      PTSUNNY   45  36  70 CALM      29.90S

$$
WYZ014>020-022>026-101>103-271200-
CENTRAL WYOMING

CITY           SKY/WX    TMP DP  RH WIND       PRES   REMARKS
BIG PINEY      FAIR      34  31  88 NE6       30.02F WCI  29
PINEDALE       CLOUDY    32  32 100 CALM      30.05S
DUBOIS         FAIR      32  28  86 NW13      30.01F WCI  22
LANDER         CLOUDY    43  36  76 CALM      29.95R
RIVERTON       FAIR      44  37  76 N5        29.96F
CASPER         FAIR      39  36  89 CALM      29.94F
DOUGLAS          N/A    N/A N/A N/A MISG      29.93F

$$
WYZ021-027>030-104>119-271200-
SOUTHERN WYOMING

CITY           SKY/WX    TMP DP  RH WIND       PRES   REMARKS
EVANSTON       CLOUDY    40  33  76 SW6       30.03F
KEMMERER         N/A     36  32  87 N3        30.03S
FORT BRIDGER   CLOUDY    43  37  81 SW8       30.04F
ROCK SPRINGS   LGT RAIN  43  40  89 SE3       30.01S
DIXON          FAIR      38  34  88 CALM      30.00R
RAWLINS        MOCLDY    39  34  82 NW10      29.98S WCI  32
SARATOGA       FAIR      32  32 100 CALM      29.98S
LARAMIE        CLOUDY    39  37  92 NW8       29.96S WCI  33
CHEYENNE       FAIR      45  36  70 N17G24    29.89S
TORRINGTON     FAIR      48  42  80 NW9       29.83F
PINE BLUFFS    FAIR      45  41  87 NW20      29.83F

$$




USA.gov is the U.S. government's official web portal to all federal, state and local government web resources and services.